This demonstration page uses our WeatherBlox Daily Observations layout. Learn more.

Left ArrowRight Arrow

Hourly Observations for September 7, 2021

Temp ( °F °C ) Dew Point ( °F °C ) Humidity (%) Winds ( mph kmh ) Pressure ( in mb ) Visibility ( mi km ) Precip ( " mm )
12:15 am 00:15 Clear 64 18 61 16 88 88 W 5 7 29.97 1015 10 16 N/A
12:35 am 00:35 Clear 64 18 61 16 88 88 W 5 7 29.97 1015 10 16 N/A
12:55 am 00:55 Clear 64 18 61 16 88 88 W 3 6 29.97 1015 10 16 N/A
1:15 am 01:15 Clear 64 18 61 16 88 88 N N/A 29.97 1015 10 16 N/A
1:35 am 01:35 Partly Cloudy 66 19 61 16 83 83 N N/A 29.97 1015 10 16 N/A
1:55 am 01:55 Partly Cloudy 64 18 59 15 83 83 N N/A 29.97 1015 10 16 N/A
2:15 am 02:15 Partly Cloudy 64 18 59 15 83 83 N N/A 29.97 1015 10 16 N/A
2:35 am 02:35 Partly Cloudy 64 18 59 15 83 83 N N/A 29.97 1015 10 16 N/A
2:55 am 02:55 Partly Cloudy 64 18 59 15 83 83 N N/A 29.97 1015 10 16 N/A
3:15 am 03:15 Mostly Cloudy 64 18 59 15 83 83 N N/A 29.97 1015 10 16 N/A
3:35 am 03:35 Partly Cloudy 63 17 61 16 94 94 N N/A 29.98 1015 10 16 N/A
3:55 am 03:55 Partly Cloudy 63 17 61 16 94 94 N N/A 29.99 1015 10 16 N/A
4:15 am 04:15 Partly Cloudy 63 17 61 16 94 94 N N/A 30.00 1016 10 16 N/A
4:35 am 04:35 Partly Cloudy 63 17 59 15 88 88 N N/A 30.00 1016 10 16 N/A
4:55 am 04:55 Partly Cloudy 63 17 59 15 88 88 N N/A 30.00 1016 10 16 N/A
5:15 am 05:15 Clear 61 16 59 15 94 94 N N/A 30.01 1016 10 16 N/A
5:35 am 05:35 Clear 61 16 59 15 94 94 N N/A 30.01 1016 10 16 N/A
5:55 am 05:55 Clear 61 16 59 15 94 94 N N/A 30.01 1016 10 16 N/A
6:15 am 06:15 Clear 61 16 59 15 94 94 N N/A 30.02 1016 10 16 N/A
6:35 am 06:35 Clear 59 15 59 15 100 100 N N/A 30.02 1017 10 16 N/A
6:55 am 06:55 Sunny 61 16 59 15 94 94 N N/A 30.02 1016 10 16 N/A
7:15 am 07:15 Sunny 61 16 59 15 94 94 N N/A 30.03 1017 10 16 N/A
7:35 am 07:35 Sunny 63 17 59 15 88 88 N N/A 30.03 1017 10 16 N/A
7:55 am 07:55 Sunny 64 18 61 16 88 88 N N/A 30.02 1017 10 16 N/A
8:15 am 08:15 Sunny 64 18 63 17 94 94 N N/A 30.02 1017 10 16 N/A
8:35 am 08:35 Sunny 68 20 61 16 78 78 N N/A 30.03 1017 10 16 N/A
8:55 am 08:55 Sunny 68 20 63 17 83 83 N N/A 30.04 1017 10 16 N/A
9:15 am 09:15 Sunny 70 21 61 16 73 73 N N/A 30.03 1017 10 16 N/A
9:35 am 09:35 Sunny 72 22 61 16 69 69 N N/A 30.03 1017 10 16 N/A
9:55 am 09:55 Sunny 73 23 63 17 69 69 SSE 3 6 30.03 1017 10 16 N/A
10:15 am 10:15 Sunny 77 25 63 17 61 61 S 3 6 30.02 1017 10 16 N/A
10:35 am 10:35 Sunny 77 25 64 18 65 65 N N/A 30.02 1017 10 16 N/A
11:15 am 11:15 Sunny 79 26 63 17 58 58 SW 3 6 30.02 1017 10 16 N/A
11:35 am 11:35 Sunny 81 27 64 18 58 58 WSW 5 7 30.01 1016 10 16 N/A
11:55 am 11:55 Sunny 82 28 64 18 55 55 SW 6 9 30.01 1016 10 16 N/A
12:15 pm 12:15 Sunny 82 28 64 18 55 55 W 6 9 30.00 1016 10 16 N/A
12:35 pm 12:35 Sunny 82 28 63 17 51 51 W 7 11 30.00 1016 10 16 N/A
12:55 pm 12:55 Partly Cloudy 84 29 64 18 51 51 SSW 8 13 30.00 1016 10 16 N/A
1:15 pm 13:15 Partly Cloudy 82 28 63 17 51 51 SW 9 15 29.99 1016 10 16 N/A
1:35 pm 13:35 Partly Cloudy 82 28 64 18 55 55 S 3 6 29.99 1016 10 16 N/A
1:55 pm 13:55 Partly Cloudy 86 30 64 18 49 49 S 9 15 29.98 1015 10 16 N/A
2:15 pm 14:15 Partly Cloudy 86 30 63 17 46 46 SW 7 11 29.98 1015 10 16 N/A
2:35 pm 14:35 Mostly Cloudy 86 30 63 17 46 46 SW 7 11 29.96 1014 10 16 N/A
2:55 pm 14:55 Mostly Cloudy 86 30 61 16 43 43 WSW 9 15 29.96 1014 10 16 N/A
3:15 pm 15:15 Partly Cloudy 86 30 63 17 46 46 W 7 11 29.95 1014 10 16 N/A
3:35 pm 15:35 Sunny 86 30 61 16 43 43 SSW 7 11 29.94 1014 10 16 N/A
3:55 pm 15:55 Sunny 86 30 61 16 43 43 WSW 9 15 29.93 1013 10 16 N/A
4:15 pm 16:15 Sunny 86 30 61 16 43 43 S 12 19 29.93 1013 10 16 N/A
4:35 pm 16:35 Sunny 86 30 61 16 43 43 SSW 7 11 29.92 1013 10 16 N/A
4:55 pm 16:55 Sunny 86 30 61 16 43 43 S 9 15 29.92 1013 10 16 N/A
5:15 pm 17:15 Sunny 86 30 61 16 43 43 SSW 7 11 29.91 1013 10 16 N/A
5:35 pm 17:35 Sunny 84 29 61 16 45 45 S 10 17 29.91 1013 10 16 N/A
5:55 pm 17:55 Sunny 84 29 61 16 45 45 SW 9 15 29.91 1013 10 16 N/A
6:15 pm 18:15 Sunny 82 28 61 16 48 48 SW 7 11 29.91 1013 10 16 N/A
6:35 pm 18:35 Sunny 82 28 61 16 48 48 SW 6 9 29.91 1013 10 16 N/A
6:55 pm 18:55 Sunny 81 27 61 16 51 51 SSW 3 6 29.92 1013 10 16 N/A
7:15 pm 19:15 Sunny 79 26 61 16 54 54 S 6 9 29.91 1013 10 16 N/A
7:35 pm 19:35 Clear 79 26 61 16 54 54 S 6 9 29.91 1013 10 16 N/A
7:55 pm 19:55 Clear 77 25 61 16 57 57 S 6 9 29.91 1013 10 16 N/A
8:15 pm 20:15 Clear 75 24 61 16 61 61 S 7 11 29.92 1013 10 16 N/A
8:35 pm 20:35 Clear 73 23 61 16 65 65 S 7 11 29.93 1013 10 16 N/A
8:55 pm 20:55 Clear 73 23 61 16 65 65 SSW 5 7 29.94 1014 10 16 N/A
9:15 pm 21:15 Clear 73 23 61 16 65 65 S 6 9 29.94 1014 10 16 N/A
9:35 pm 21:35 Clear 72 22 61 16 69 69 S 5 7 29.94 1014 10 16 N/A
9:55 pm 21:55 Clear 72 22 61 16 69 69 S 6 9 29.94 1014 10 16 N/A
10:15 pm 22:15 Clear 72 22 63 17 73 73 SSW 5 7 29.94 1014 10 16 N/A
10:35 pm 22:35 Clear 70 21 63 17 78 78 SSW 5 7 29.94 1014 10 16 N/A
10:55 pm 22:55 Clear 72 22 63 17 73 73 S 6 9 29.95 1014 10 16 N/A
11:15 pm 23:15 Clear 72 22 63 17 73 73 S 6 9 29.94 1014 10 16 N/A
11:35 pm 23:35 Clear 68 20 63 17 83 83 S 6 9 29.94 1014 10 16 N/A
11:55 pm 23:55 Clear 68 20 63 17 83 83 SSW 6 9 29.94 1014 10 16 N/A

Powered by AerisWeather